Regional Weather Roundup
Issued by NWS

Home | Current Version | Previous Version | Graphics & Text | Print | Product List | Glossary On
Versions: 1 2 3 4 5 6 7 8 9 10 11 12 13 14 15 16 17 18 19 20 21 22 23 24 25 26 27 28 29 30 31 32 33 34 35 36 37 38 39 40 41 42 43 44 45 46 47 48 49 50
000
ASUS43 KOAX 050302
RWRNE

WEATHER ROUNDUP FOR NEBRASKA
NATIONAL WEATHER SERVICE OMAHA NE
1000 PM CDT WED MAY 04 2016

NOTES: SATELLITE DATA IS BEING USED TO AUGMENT CLOUD COVER ABOVE
       12000 FEET.
       "FAIR" INDICATES FEW OR NO CLOUDS BELOW 12,000 FEET WITH NO
       SIGNIFICANT WEATHER AND/OR OBSTRUCTIONS TO VISIBILITY.

  * THESE STATIONS DO NOT REPORT WEATHER SUCH AS RAIN...SNOW OR FOG.

NEZ001>004-019>022-054>056-050400-
NEBRASKA PANHANDLE

CITY           SKY/WX    TMP DP  RH WIND       PRES   REMARKS
SCOTTSBLUFF    CLEAR     63  43  48 SE9       30.08R
ALLIANCE       CLEAR     53  41  63 SE8       30.08R
CHADRON        CLEAR     59  43  55 SE12      30.02S
KIMBALL        CLEAR     53  42  66 SE8       30.13S
SIDNEY         CLEAR     51  43  74 SE7       30.13R
$$

NEZ057>060-069>072-079>082-050400-
SOUTHWEST NEBRASKA

CITY           SKY/WX    TMP DP  RH WIND       PRES   REMARKS
NORTH PLATTE   CLEAR     53  40  61 E3        30.08R
IMPERIAL       CLEAR     60  42  51 SE6       30.09R
LEXINGTON      CLEAR     60  37  42 E5        30.08R
MCCOOK         CLEAR     59  43  55 E5        30.08R
$$

NEZ005>010-023>029-035>040-094-050400-
NORTH CENTRAL NEBRASKA

CITY           SKY/WX    TMP DP  RH WIND       PRES   REMARKS
VALENTINE      CLEAR     56  40  55 E6        30.06R
AINSWORTH      CLEAR     56  41  56 E6        30.08R
BROKEN BOW     CLEAR     50  42  74 CALM      30.07R
ORD            CLEAR     50  42  74 CALM      30.06R
$$

NEZ041-046>049-061>064-073>077-083>087-050400-
SOUTH CENTRAL NEBRASKA

CITY           SKY/WX    TMP DP  RH WIND       PRES   REMARKS
GRAND ISLAND   CLEAR     54  38  54 NW5       30.07R
AURORA         CLEAR     56  34  43 N3        30.06R
HASTINGS       CLEAR     53  37  54 CALM      30.06R
KEARNEY *      CLEAR     59  36  41 CALM      30.08R
YORK           CLEAR     55  36  47 N3        30.05R
$$

NEZ011>018-030>034-042>045-050400-
NORTHEAST NEBRASKA

CITY           SKY/WX    TMP DP  RH WIND       PRES   REMARKS
NORFOLK        CLEAR     53  37  54 NW3       30.04R
ALBION         CLEAR     48  38  68 NW3       30.05S
BLAIR          CLEAR     58  41  53 NW5       30.01R
COLUMBUS *     CLEAR     54  34  47 N3        30.05R
FREMONT        CLEAR     55  42  62 CALM      30.03R
TEKAMAH        CLEAR     55  42  61 NW6       30.01R
$$

NEZ050>053-065>068-078-088>093-050400-
SOUTHEAST NEBRASKA

CITY           SKY/WX    TMP DP  RH WIND       PRES   REMARKS
LINCOLN        CLEAR     57  38  48 MISG      30.04R
OMAHA EPPLEY   CLEAR     58  44  60 CALM      30.00R
BEATRICE       CLEAR     51  39  63 N3        30.03R
FALLS CITY     CLEAR     57  38  48 NW3       30.00R
$$

NEZ044-045-051>053-067-050400-
OMAHA AREA

CITY           SKY/WX    TMP DP  RH WIND       PRES   REMARKS
OMAHA EPPLEY   CLEAR     58  44  60 CALM      30.00R
BLAIR          CLEAR     58  41  53 NW5       30.01R
FREMONT        CLEAR     55  42  62 CALM      30.03R
$$




USA.gov is the U.S. government's official web portal to all federal, state and local government web resources and services.